�������l�o���
Date,Time,MP-1(��Sv/h),MP-2(��Sv/h),MP-3(��Sv/h),MP-4(��Sv/h),MP-5(��Sv/h),MP-6(��Sv/h),MP-7(��Sv/h),MP-8(��Sv/h),����,����(m/s),���J
2016/03/05,00:00,1.652,2.638,2.666,2.464,2.635,0.696,1.266,1.104,��,4.8,��
2016/03/05,00:10,1.647,2.640,2.669,2.463,2.633,0.699,1.264,1.101,��,5.0,��
2016/03/05,00:20,1.650,2.635,2.664,2.460,2.635,0.699,1.264,1.100,��,4.6,��
2016/03/05,00:30,1.650,2.635,2.674,2.463,2.635,0.698,1.263,1.100,��,4.8,��
2016/03/05,00:40,1.650,2.635,2.671,2.458,2.632,0.696,1.264,1.101,��,4.3,��
2016/03/05,00:50,1.648,2.635,2.666,2.459,2.635,0.698,1.265,1.101,��쐼,4.9,��
2016/03/05,01:00,1.652,2.637,2.665,2.462,2.633,0.696,1.266,1.100,��,4.6,��
2016/03/05,01:10,1.650,2.638,2.667,2.459,2.633,0.696,1.266,1.100,��쐼,4.7,��
2016/03/05,01:20,1.650,2.637,2.670,2.463,2.633,0.698,1.264,1.101,��,5.2,��
2016/03/05,01:30,1.648,2.632,2.668,2.460,2.634,0.698,1.267,1.101,��쐼,4.4,��
2016/03/05,01:40,1.652,2.635,2.666,2.458,2.631,0.697,1.266,1.100,��,3.8,��
2016/03/05,01:50,1.650,2.635,2.665,2.458,2.636,0.698,1.265,1.100,��,2.6,��
2016/03/05,02:00,1.652,2.635,2.666,2.461,2.634,0.698,1.264,1.099,��,2.9,��
2016/03/05,02:10,1.648,2.635,2.664,2.462,2.634,0.698,1.264,1.101,��,2.3,��
2016/03/05,02:20,1.648,2.635,2.668,2.462,2.632,0.697,1.265,1.103,��,1.7,��
2016/03/05,02:30,1.648,2.635,2.669,2.461,2.635,0.698,1.265,1.101,��,1.7,��
2016/03/05,02:40,1.650,2.633,2.664,2.461,2.632,0.699,1.267,1.101,��,1.9,��
2016/03/05,02:50,1.650,2.637,2.666,2.460,2.636,0.700,1.264,1.102,��,0.9,��
2016/03/05,03:00,1.650,2.635,2.664,2.459,2.633,0.698,1.264,1.099,��,1.5,��
2016/03/05,03:10,1.648,2.635,2.669,2.461,2.628,0.698,1.267,1.101,��,1.2,��
2016/03/05,03:20,1.650,2.630,2.666,2.458,2.635,0.698,1.265,1.101,-,CALM,��
2016/03/05,03:30,1.648,2.635,2.666,2.460,2.631,0.697,1.265,1.101,�쓌,1.1,��
2016/03/05,03:40,1.650,2.632,2.666,2.459,2.631,0.698,1.263,1.101,��쓌,0.6,��
2016/03/05,03:50,1.647,2.637,2.665,2.456,2.629,0.698,1.263,1.099,-,CALM,��
2016/03/05,04:00,1.647,2.637,2.667,2.460,2.630,0.698,1.263,1.100,-,CALM,��
2016/03/05,04:10,1.652,2.635,2.667,2.460,2.628,0.697,1.264,1.100,-,CALM,��
2016/03/05,04:20,1.650,2.632,2.665,2.457,2.629,0.697,1.264,1.100,�k��,0.6,��
2016/03/05,04:30,1.648,2.635,2.664,2.457,2.626,0.698,1.264,1.100,�k�k��,1.5,��
2016/03/05,04:40,1.650,2.635,2.664,2.462,2.631,0.698,1.266,1.101,�k�k��,2.5,��
2016/03/05,04:50,1.648,2.633,2.663,2.457,2.629,0.695,1.263,1.101,�k��,3.1,��
2016/03/05,05:00,1.647,2.633,2.665,2.461,2.631,0.697,1.263,1.099,�k�k��,4.1,��
2016/03/05,05:10,1.650,2.638,2.663,2.459,2.630,0.697,1.265,1.101,�k�k��,4.2,��
2016/03/05,05:20,1.650,2.633,2.668,2.458,2.630,0.698,1.264,1.099,�k�k��,5.1,��
2016/03/05,05:30,1.650,2.635,2.664,2.462,2.629,0.693,1.266,1.100,�k�k��,6.2,��
2016/03/05,05:40,1.647,2.633,2.666,2.460,2.628,0.692,1.265,1.099,�k�k��,6.7,��
2016/03/05,05:50,1.648,2.635,2.666,2.463,2.631,0.691,1.264,1.100,�k�k��,6.6,��
2016/03/05,06:00,1.647,2.632,2.665,2.460,2.631,0.694,1.265,1.099,�k�k��,6.5,��
2016/03/05,06:10,1.647,2.632,2.663,2.458,2.630,0.695,1.265,1.102,�k�k��,6.1,��
2016/03/05,06:20,1.650,2.633,2.664,2.460,2.629,0.694,1.265,1.101,�k�k��,5.3,��
2016/03/05,06:30,1.648,2.632,2.665,2.461,2.630,0.694,1.262,1.100,�k�k��,4.9,��
2016/03/05,06:40,1.648,2.633,2.663,2.459,2.625,0.696,1.267,1.099,�k�k��,4.4,��
2016/03/05,06:50,1.652,2.633,2.663,2.457,2.627,0.696,1.266,1.101,�k,3.4,��
2016/03/05,07:00,1.652,2.635,2.666,2.458,2.630,0.695,1.266,1.101,�k,3.8,��
2016/03/05,07:10,1.650,2.637,2.666,2.458,2.630,0.694,1.266,1.101,�k,3.0,��
2016/03/05,07:20,1.650,2.633,2.663,2.459,2.628,0.694,1.265,1.102,�k,3.6,��
2016/03/05,07:30,1.648,2.637,2.664,2.463,2.633,0.695,1.265,1.101,�k,4.2,��
2016/03/05,07:40,1.650,2.637,2.670,2.460,2.630,0.694,1.265,1.099,�k,5.0,��
2016/03/05,07:50,1.652,2.637,2.668,2.460,2.632,0.694,1.266,1.101,�k,5.5,��
2016/03/05,08:00,1.650,2.637,2.669,2.463,2.632,0.696,1.267,1.102,�k,4.8,��
2016/03/05,08:10,1.648,2.635,2.670,2.466,2.635,0.696,1.267,1.100,�k�k��,3.7,��
2016/03/05,08:20,1.650,2.637,2.675,2.466,2.636,0.696,1.269,1.103,�k,4.3,��
2016/03/05,08:30,1.652,2.635,2.674,2.466,2.637,0.696,1.265,1.103,�k,4.9,��
2016/03/05,08:40,1.653,2.638,2.673,2.464,2.636,0.695,1.269,1.103,�k,3.7,��
2016/03/05,08:50,1.653,2.638,2.674,2.466,2.640,0.696,1.269,1.102,�k�k��,4.4,��
2016/03/05,09:00,1.653,2.638,2.675,2.466,2.639,0.696,1.268,1.104,�k,6.2,��
2016/03/05,09:10,1.653,2.645,2.680,2.462,2.638,0.694,1.266,1.102,�k,6.0,��
2016/03/05,09:20,1.655,2.640,2.671,2.466,2.640,0.696,1.266,1.104,�k,5.6,��
2016/03/05,09:30,1.655,2.643,2.678,2.463,2.639,0.695,1.265,1.103,�k,5.5,��
2016/03/05,09:40,-,2.643,2.678,2.471,2.643,0.696,1.267,1.101,�k�k��,4.4,��
2016/03/05,09:50,-,2.642,2.678,2.468,2.640,0.697,1.266,1.102,�k�k��,4.6,��
2016/03/05,10:00,-,2.642,2.677,2.469,2.643,0.696,1.267,1.103,�k�k��,4.7,��
2016/03/05,10:10,-,2.643,2.676,2.466,2.640,0.697,1.265,1.103,�k�k��,4.6,��
2016/03/05,10:20,-,2.643,2.677,2.470,2.640,0.697,1.263,1.104,�k�k��,4.4,��
2016/03/05,10:30,-,2.647,2.679,2.467,2.642,0.697,1.263,1.103,�k�k��,3.5,��
2016/03/05,10:40,-,2.645,2.681,2.469,2.645,0.694,1.264,1.104,�k�k��,3.2,��
2016/03/05,10:50,-,2.643,2.677,2.470,2.645,0.694,1.267,1.103,�k�k��,3.1,��
2016/03/05,11:00,-,2.645,2.678,2.472,2.646,0.697,1.265,1.104,�k�k��,2.6,��
2016/03/05,11:10,-,2.643,2.680,2.469,2.647,0.698,1.266,1.105,�k�k��,3.3,��
2016/03/05,11:20,-,2.642,2.678,2.472,2.649,0.696,1.265,1.104,�k�k��,3.3,��
2016/03/05,11:30,-,2.643,2.681,2.470,2.648,0.698,1.265,1.103,�k�k��,3.6,��
2016/03/05,11:40,-,2.645,2.679,2.470,2.647,0.696,1.267,1.105,�k�k��,3.6,��
2016/03/05,11:50,-,2.645,2.681,2.470,2.649,0.697,1.267,1.104,�k��,3.3,��
2016/03/05,12:00,-,2.647,2.683,2.471,2.647,0.698,1.267,1.106,�k��,2.6,��
2016/03/05,12:10,-,2.647,2.680,2.468,2.646,0.698,1.265,1.104,�k�k��,3.3,��
2016/03/05,12:20,-,2.647,2.682,2.469,2.645,0.696,1.267,1.104,�k��,3.6,��
2016/03/05,12:30,-,2.643,2.681,2.471,2.644,0.696,1.266,1.104,�k�k��,3.4,��
2016/03/05,12:40,-,2.645,2.682,2.469,2.643,0.696,1.265,1.105,�k�k��,3.5,��
2016/03/05,12:50,-,2.645,2.681,2.470,2.641,0.698,1.266,1.104,�k��,2.6,��
2016/03/05,13:00,-,2.643,2.681,2.470,2.648,0.699,1.266,1.104,�k��,2.9,��
2016/03/05,13:10,-,2.643,2.682,2.471,2.643,0.699,1.266,1.103,�k��,2.6,��
2016/03/05,13:20,-,2.645,2.676,2.471,2.644,0.697,1.267,1.103,���k��,2.6,��
2016/03/05,13:30,-,2.647,2.681,2.470,2.646,0.697,1.265,1.106,���k��,2.2,��
2016/03/05,13:40,-,2.645,2.679,2.472,2.646,0.695,1.265,1.103,���k��,1.7,��
2016/03/05,13:50,-,2.645,2.680,2.468,2.647,0.697,1.267,1.103,��,1.5,��
2016/03/05,14:00,-,2.647,2.682,2.470,2.650,0.699,1.267,1.105,�k�k��,2.0,��
2016/03/05,14:10,-,2.650,2.679,2.471,2.645,0.697,1.264,1.104,�k��,1.7,��
2016/03/05,14:20,-,2.647,2.684,2.471,2.648,0.697,1.264,1.103,�k��,1.2,��
2016/03/05,14:30,-,2.645,2.678,2.472,2.652,0.699,1.268,1.106,�k��,1.2,��
2016/03/05,14:40,-,2.647,2.680,2.471,2.646,0.699,1.265,1.105,���k��,1.1,��
2016/03/05,14:50,-,2.648,2.681,2.470,2.646,0.700,1.268,1.103,�k��,0.6,��
2016/03/05,15:00,-,2.647,2.683,2.471,2.649,0.696,1.268,1.103,���k��,1.2,��
2016/03/05,15:10,-,2.647,2.678,2.471,2.645,0.698,1.266,1.105,���k��,1.5,��
2016/03/05,15:20,-,2.645,2.680,2.472,2.648,0.698,1.267,1.103,��쓌,0.9,��
2016/03/05,15:30,-,2.643,2.683,2.470,2.651,0.700,1.270,1.104,���쓌,1.2,��
2016/03/05,15:40,-,2.648,2.686,2.472,2.645,0.698,1.268,1.104,���쓌,0.9,��
2016/03/05,15:50,-,2.643,2.683,2.469,2.650,0.699,1.269,1.103,���쓌,0.9,��
2016/03/05,16:00,-,2.647,2.683,2.468,2.646,0.699,1.266,1.103,��쐼,0.6,��
2016/03/05,16:10,-,2.650,2.683,2.470,2.649,0.699,1.266,1.103,�쓌,1.4,��
2016/03/05,16:20,-,2.645,2.682,2.468,2.644,0.698,1.268,1.102,���쓌,1.2,��
2016/03/05,16:30,-,2.645,2.681,2.469,2.647,0.699,1.266,1.104,���쓌,1.5,��
2016/03/05,16:40,-,2.647,2.684,2.471,2.645,0.700,1.267,1.102,�쓌,1.7,��
2016/03/05,16:50,-,2.645,2.681,2.470,2.644,0.698,1.267,1.103,���쓌,1.2,��
2016/03/05,17:00,-,2.648,2.681,2.469,2.649,0.698,1.268,1.102,���쓌,2.2,��
2016/03/05,17:10,-,2.642,2.682,2.469,2.649,0.699,1.268,1.100,���쓌,2.6,��
2016/03/05,17:20,-,2.643,2.685,2.470,2.644,0.699,1.266,1.103,���쓌,2.9,��
2016/03/05,17:30,1.653,2.645,2.682,2.469,2.646,0.700,1.265,1.102,���쓌,2.0,��
2016/03/05,17:40,1.655,2.645,2.683,2.468,2.644,0.699,1.266,1.102,���쓌,2.3,��
2016/03/05,17:50,1.655,2.645,2.681,2.470,2.639,0.700,1.269,1.102,���쓌,2.8,��
2016/03/05,18:00,1.655,2.647,2.681,2.472,2.643,0.699,1.265,1.103,�쓌,2.5,��
2016/03/05,18:10,1.657,2.645,2.679,2.471,2.644,0.699,1.267,1.101,�쓌,2.2,��
2016/03/05,18:20,1.660,2.640,2.680,2.471,2.642,0.698,1.268,1.101,���쓌,2.3,��
2016/03/05,18:30,1.658,2.643,2.681,2.473,2.644,0.699,1.269,1.101,�쓌,3.1,��
2016/03/05,18:40,1.657,2.643,2.682,2.468,2.645,0.699,1.266,1.101,�쓌,2.9,��
2016/03/05,18:50,1.658,2.640,2.678,2.472,2.644,0.699,1.266,1.102,�쓌,2.0,��
2016/03/05,19:00,1.660,2.643,2.678,2.470,2.642,0.700,1.267,1.103,��쓌,1.7,��
2016/03/05,19:10,1.657,2.643,2.682,2.469,2.645,0.700,1.268,1.103,��쓌,2.2,��
2016/03/05,19:20,1.657,2.642,2.680,2.469,2.642,0.700,1.269,1.103,��,2.0,��
2016/03/05,19:30,1.660,2.645,2.681,2.468,2.644,0.699,1.268,1.102,��,2.6,��
2016/03/05,19:40,1.657,2.643,2.680,2.470,2.643,0.698,1.267,1.101,��,2.2,��
2016/03/05,19:50,1.657,2.642,2.682,2.469,2.644,0.699,1.268,1.101,��쓌,1.5,��
2016/03/05,20:00,1.655,2.642,2.680,2.470,2.643,0.699,1.268,1.103,��쓌,1.7,��
2016/03/05,20:10,1.653,2.643,2.680,2.463,2.645,0.699,1.267,1.101,��,2.0,��
2016/03/05,20:20,1.655,2.647,2.675,2.466,2.646,0.700,1.267,1.100,��쓌,2.3,��
2016/03/05,20:30,1.653,2.642,2.679,2.469,2.642,0.699,1.267,1.102,��,2.0,��
2016/03/05,20:40,1.655,2.645,2.679,2.468,2.647,0.699,1.268,1.101,��쓌,1.9,��
2016/03/05,20:50,1.655,2.645,2.680,2.470,2.642,0.699,1.269,1.101,��쓌,2.0,��
2016/03/05,21:00,1.657,2.642,2.680,2.471,2.642,0.700,1.267,1.103,��쓌,2.3,��
2016/03/05,21:10,1.653,2.642,2.674,2.468,2.643,0.699,1.270,1.102,�쓌,2.6,��
2016/03/05,21:20,1.657,2.638,2.682,2.471,2.642,0.699,1.269,1.101,��쓌,2.0,��
2016/03/05,21:30,1.657,2.640,2.678,2.467,2.640,0.699,1.267,1.102,��쓌,2.6,��
2016/03/05,21:40,1.657,2.643,2.679,2.470,2.640,0.700,1.268,1.103,��쓌,2.8,��
2016/03/05,21:50,1.655,2.643,2.678,2.469,2.642,0.701,1.266,1.104,��,3.2,��
2016/03/05,22:00,1.655,2.643,2.679,2.468,2.645,0.698,1.267,1.101,��쓌,3.0,��
2016/03/05,22:10,1.655,2.643,2.680,2.467,2.644,0.698,1.268,1.103,��쓌,2.8,��
2016/03/05,22:20,1.657,2.640,2.677,2.467,2.645,0.698,1.267,1.102,��쓌,2.6,��
2016/03/05,22:30,1.657,2.640,2.682,2.469,2.645,0.699,1.269,1.101,��,2.6,��
2016/03/05,22:40,1.657,2.642,2.680,2.467,2.644,0.700,1.266,1.102,��쓌,3.0,��
2016/03/05,22:50,1.655,2.640,2.680,2.468,2.639,0.699,1.268,1.102,��,3.1,��
2016/03/05,23:00,1.653,2.645,2.677,2.466,2.644,0.699,1.266,1.102,��,3.0,��
2016/03/05,23:10,1.653,2.645,2.683,2.470,2.644,0.699,1.268,1.104,��쐼,2.6,��
2016/03/05,23:20,1.657,2.645,2.677,2.472,2.641,0.699,1.269,1.103,��쐼,2.6,��
2016/03/05,23:30,1.655,2.645,2.681,2.472,2.643,0.703,1.269,1.102,�쐼,1.9,��
2016/03/05,23:40,1.653,2.647,2.681,2.472,2.641,0.699,1.269,1.102,�쐼,1.5,��
2016/03/05,23:50,1.655,2.648,2.680,2.469,2.644,0.701,1.269,1.102,�쐼,1.4,��
